Weather History for KNFL - November, 2014

Change the Weather History Date:

Saturday, November 29, 2014

  Actual Average Record
Temperature  
Mean Temperature 49 °F -  
Max Temperature 59 °F 49 °F 71 °F (1980)
Min Temperature 37 °F 21 °F 5 °F (2004)
Degree Days  
Heating Degree Days 16    
Moisture  
Dew Point 27 °F    
Average Humidity 43    
Maximum Humidity 60    
Minimum Humidity 15    
Precipitation  
Precipitation 0.00 in - - ()
Sea Level Pressure  
Sea Level Pressure 29.73 in    
Wind  
Wind Speed 12 mph (WSW)    
Max Wind Speed 28 mph    
Max Gust Speed 33 mph    
Visibility 10 miles    
Events      
Averages and records for this station are not official NWS values.
T = Trace of Precipitation, MM = Missing Value Source: NWS Daily Summary

Daily Weather History Graph

Daily Weather History Graph

Search for Another Location

Airport or City:

Trip Planner

Search our weather history database for the weather conditions in past years. The results will help you decide how hot, cold, wet, or windy it might be!

Date:

Astronomy

Nov. 29, 2014 Rise Set
Actual Time 6:53 AM PST 4:32 PM PST
Civil Twilight 6:24 AM PST 5:01 PM PST
Nautical Twilight 5:51 AM PST 5:35 PM PST
Astronomical Twilight 5:18 AM PST 6:07 PM PST
Moon 12:27 PM PST (11/29) No Moon Set
Length of Visible Light 10h 37m
Length of Day
9h 38m
First Quarter, 55% of the Moon is Illuminated
Nov 29
First Quarter
Dec 6
Full
Dec 14
Last Quarter
Dec 21
New
Dec 28
First Quarter

Hourly Weather History & Observations

Time (PST) Temp. Windchill Dew Point Humidity Pressure Visibility Wind Dir Wind Speed Gust Speed Precip Events Conditions
12:56 AM 55.9 °F - 9.0 °F 15% 29.72 in 10.0 mi West 15.0 mph - N/A   Clear
1:56 AM 46.9 °F - 9.0 °F 21% 29.73 in 10.0 mi Variable 3.5 mph - N/A   Clear
2:56 AM 51.1 °F - 17.1 °F 26% 29.74 in 10.0 mi WSW 19.6 mph - N/A   Mostly Cloudy
3:56 AM 50.0 °F - 26.1 °F 39% 29.73 in 10.0 mi SSW 16.1 mph 24.2 mph N/A   Overcast
4:56 AM 46.9 °F - 30.9 °F 54% 29.72 in 10.0 mi SSW 8.1 mph - N/A   Clear
5:56 AM 46.0 °F 44.8 °F 28.0 °F 50% 29.72 in 10.0 mi NE 3.5 mph - N/A   Clear
6:56 AM 50.0 °F - 28.0 °F 43% 29.73 in 10.0 mi West 11.5 mph 20.7 mph N/A   Mostly Cloudy
7:56 AM 45.0 °F 43.5 °F 28.0 °F 52% 29.75 in 10.0 mi NNE 3.5 mph - N/A   Clear
8:56 AM 50.0 °F - 30.9 °F 48% 29.76 in 10.0 mi WSW 21.9 mph 32.2 mph N/A   Clear
9:01 AM 50.0 °F - 32.0 °F 50% 29.82 in 10.0 mi WSW 17.3 mph 28.8 mph N/A   Mostly Cloudy
9:56 AM 53.1 °F - 30.9 °F 43% 29.76 in 10.0 mi SW 27.6 mph 33.4 mph N/A   Mostly Cloudy
10:56 AM 54.0 °F - 28.0 °F 37% 29.75 in 10.0 mi SW 18.4 mph 29.9 mph N/A   Mostly Cloudy
11:56 AM 57.0 °F - 28.0 °F 33% 29.72 in 10.0 mi SW 19.6 mph - N/A   Mostly Cloudy
12:56 PM 57.9 °F - 28.9 °F 33% 29.71 in 10.0 mi SW 17.3 mph - N/A   Mostly Cloudy
1:56 PM 59.0 °F - 30.0 °F 33% 29.69 in 10.0 mi West 12.7 mph - N/A   Mostly Cloudy
2:56 PM 59.0 °F - 30.0 °F 33% 29.69 in 10.0 mi WSW 11.5 mph - N/A   Scattered Clouds
3:56 PM 55.9 °F - 34.0 °F 44% 29.70 in 10.0 mi West 11.5 mph - N/A   Mostly Cloudy
4:56 PM 52.0 °F - 33.1 °F 49% 29.71 in 10.0 mi SW 10.4 mph - N/A   Mostly Cloudy
5:56 PM 50.0 °F - 32.0 °F 50% 29.72 in 10.0 mi Variable 3.5 mph - N/A   Scattered Clouds
6:56 PM 48.9 °F - 27.0 °F 43% 29.73 in 10.0 mi SW 11.5 mph - N/A   Clear
7:56 PM 42.1 °F - 26.1 °F 53% 29.73 in 10.0 mi Calm Calm - N/A   Clear
8:56 PM 42.1 °F 36.6 °F 26.1 °F 53% 29.74 in 10.0 mi West 9.2 mph - N/A   Clear
9:56 PM 39.9 °F 35.1 °F 25.0 °F 55% 29.75 in 10.0 mi WNW 6.9 mph - N/A   Clear
10:56 PM 39.0 °F 34.8 °F 25.0 °F 57% 29.76 in 10.0 mi NE 5.8 mph - N/A   Partly Cloudy
11:56 PM 37.9 °F 35.5 °F 25.0 °F 60% 29.76 in 10.0 mi East 3.5 mph - N/A   Mostly Cloudy